User: anonymous   Login
Location: Unspecified
(0.0000°N, 0.0000°E)
Time: 07:51:00
(UTC+00:00)
Language:

GOES 6 - Orbit

View from above orbital plane
View from above orbital plane
View from above satellite
View from above satellite

Ground track
Ground track

The orbit data is extracted from the following two-line orbital elements,

1 14050U 83041A   18112.21156854 -.00000052 +00000-0 +00000-0 0  9999
2 14050 014.3694 346.6798 0001716 330.1614 213.9471 01.00221622186159
Epoch (UTC): 22 April 2018 05:04:39
Eccentricity: 0.0001716
inclination: 14.3694°
perigee height: 35793 km
apogee height: 35807 km
right ascension of ascending node: 346.6798°
argument of perigee: 330.1614°
revolutions per day: 1.00221622
mean anomaly at epoch: 213.9471°
orbit number at epoch: 18615

The dashed part of the orbit path shows where the satellite is in the earth's shadow,  

DLR